| time (UTC) | temp F | wind direction | speed MPH | gust MPH | rain 1hr in | rain 24hr in | rain mn in | humidity % | barometer mb |
| 20260503004541 | 64 | 0 | 0.0 | 4.0 | 0.00 | 0.00 | 0.00 | 42 | 1018.2 |
| 20260503003047 | 65 | 0 | 0.0 | 4.0 | 0.00 | 0.00 | 0.00 | 40 | 1018.1 |
| 20260503001541 | 65 | 5 | 0.0 | 8.0 | 0.00 | 0.00 | 0.00 | 39 | 1017.8 |
| 20260502234558 | 67 | 0 | 0.0 | 10.0 | 0.00 | 0.00 | 0.00 | 38 | 1017.5 |
| 20260502233042 | 67 | 272 | 2.0 | 12.0 | 0.00 | 0.00 | 0.00 | 37 | 1017.4 |
| 20260502231541 | 68 | 314 | 2.0 | 9.0 | 0.00 | 0.00 | 0.00 | 37 | 1017.3 |
| 20260502230049 | 68 | 43 | 2.0 | 10.0 | 0.00 | 0.00 | 0.00 | 37 | 1017.3 |
| 20260502224549 | 68 | 255 | 1.0 | 9.0 | 0.00 | 0.00 | 0.00 | 36 | 1017.4 |
| 20260502223038 | 68 | 235 | 2.0 | 12.0 | 0.00 | 0.00 | 0.00 | 36 | 1017.3 |
| 20260502221544 | 68 | 0 | 2.0 | 14.0 | 0.00 | 0.00 | 0.00 | 37 | 1017.3 |
| 20260502220055 | 69 | 318 | 2.0 | 9.0 | 0.00 | 0.00 | 0.00 | 38 | 1017.2 |
| 20260502214542 | 68 | 38 | 1.0 | 5.0 | 0.00 | 0.00 | 0.00 | 39 | 1017.2 |
| 20260502213042 | 68 | 337 | 2.0 | 10.0 | 0.00 | 0.00 | 0.00 | 38 | 1017.2 |
| 20260502211547 | 68 | 31 | 0.0 | 9.0 | 0.00 | 0.00 | 0.00 | 38 | 1017.2 |
| 20260502210053 | 69 | 208 | 2.0 | 10.0 | 0.00 | 0.00 | 0.00 | 37 | 1017.2 |
| 20260502204544 | 69 | 229 | 0.0 | 8.0 | 0.00 | 0.00 | 0.00 | 39 | 1017.3 |
| 20260502203041 | 70 | 296 | 6.0 | 17.0 | 0.00 | 0.00 | 0.00 | 36 | 1017.5 |
| 20260502201546 | 70 | 250 | 2.0 | 14.0 | 0.00 | 0.00 | 0.00 | 36 | 1017.6 |
| 20260502200054 | 71 | 300 | 4.0 | 11.0 | 0.00 | 0.00 | 0.00 | 37 | 1017.9 |
| 20260502194546 | 70 | 273 | 3.0 | 15.0 | 0.00 | 0.00 | 0.00 | 36 | 1017.8 |
| 20260502193050 | 70 | 0 | 6.0 | 13.0 | 0.00 | 0.00 | 0.00 | 37 | 1017.8 |
| 20260502191556 | 68 | 301 | 5.0 | 16.0 | 0.00 | 0.00 | 0.00 | 40 | 1017.8 |
| 20260502190048 | 70 | 300 | 0.0 | 12.0 | 0.00 | 0.00 | 0.00 | 39 | 1017.8 |
| 20260502184541 | 71 | 263 | 3.0 | 11.0 | 0.00 | 0.00 | 0.00 | 38 | 1018.1 |
| 20260502183040 | 70 | 268 | 2.0 | 9.0 | 0.00 | 0.00 | 0.00 | 39 | 1018.2 |
| 20260502181547 | 69 | 280 | 2.0 | 8.0 | 0.00 | 0.00 | 0.00 | 41 | 1018.5 |
| 20260502163049 | 68 | 308 | 1.0 | 10.0 | 0.00 | 0.00 | 0.00 | 40 | 1019.3 |
| 20260502161543 | 68 | 229 | 1.0 | 6.0 | 0.00 | 0.00 | 0.00 | 42 | 1019.4 |
| 20260502151604 | 66 | 0 | 0.0 | 6.0 | 0.00 | 0.00 | 0.00 | 44 | 1019.4 |
| 20260502140118 | 61 | 0 | 0.0 | 4.0 | 0.00 | 0.00 | 0.00 | 56 | 1019.1 |
| 20260502123046 | 48 | 0 | 0.0 | 0.0 | 0.00 | 0.00 | 0.00 | 87 | 1018.7 |
| 20260502121545 | 45 | 0 | 0.0 | 0.0 | 0.00 | 0.00 | 0.00 | 90 | 1018.5 |
| 20260502114541 | 43 | 0 | 0.0 | 0.0 | 0.00 | 0.00 | 0.00 | 87 | 1018.1 |
| 20260502113048 | 43 | 0 | 0.0 | 0.0 | 0.00 | 0.00 | 0.00 | 87 | 1018.1 |
| 20260502111549 | 43 | 0 | 0.0 | 0.0 | 0.00 | 0.00 | 0.00 | 86 | 1018.0 |
| 20260502110057 | 44 | 0 | 0.0 | 0.0 | 0.00 | 0.00 | 0.00 | 85 | 1017.9 |
| 20260502104547 | 44 | 0 | 0.0 | 0.0 | 0.00 | 0.00 | 0.00 | 85 | 1017.9 |
| 20260502103042 | 44 | 0 | 0.0 | 0.0 | 0.00 | 0.00 | 0.00 | 84 | 1017.7 |
| 20260502101551 | 45 | 0 | 0.0 | 0.0 | 0.00 | 0.00 | 0.00 | 83 | 1017.6 |
| 20260502090109 | 47 | 0 | 0.0 | 0.0 | 0.00 | 0.00 | 0.00 | 77 | 1017.4 |
| 20260502070104 | 52 | 0 | 0.0 | 0.0 | 0.00 | 0.00 | 0.00 | 67 | 1017.4 |
| 20260502064556 | 53 | 0 | 0.0 | 0.0 | 0.00 | 0.00 | 0.00 | 64 | 1017.6 |
| 20260502063052 | 54 | 0 | 0.0 | 0.0 | 0.00 | 0.00 | 0.00 | 63 | 1018.0 |
| 20260502061542 | 54 | 0 | 0.0 | 0.0 | 0.00 | 0.00 | 0.00 | 61 | 1018.1 |
| 20260502060042 | 54 | 0 | 0.0 | 3.0 | 0.00 | 0.00 | 0.00 | 59 | 1018.1 |
| 20260502054541 | 55 | 0 | 0.0 | 3.0 | 0.00 | 0.00 | 0.00 | 60 | 1018.1 |
| 20260502053040 | 54 | 0 | 0.0 | 2.0 | 0.00 | 0.00 | 0.00 | 60 | 1017.9 |
| 20260502051540 | 54 | 0 | 0.0 | 5.0 | 0.00 | 0.00 | 0.00 | 62 | 1017.8 |
| 20260502050046 | 54 | 0 | 0.0 | 1.0 | 0.00 | 0.00 | 0.00 | 63 | 1017.7 |
| 20260502044543 | 55 | 0 | 0.0 | 0.0 | 0.00 | 0.00 | 0.00 | 61 | 1017.7 |
| 20260502043045 | 55 | 0 | 0.0 | 0.0 | 0.00 | 0.00 | 0.00 | 58 | 1017.5 |
| 20260502041554 | 55 | 0 | 0.0 | 0.0 | 0.00 | 0.00 | 0.00 | 57 | 1017.3 |
| 20260502040042 | 56 | 0 | 0.0 | 1.0 | 0.00 | 0.00 | 0.00 | 57 | 1017.0 |
| 20260502034540 | 56 | 0 | 0.0 | 1.0 | 0.00 | 0.00 | 0.00 | 55 | 1017.1 |
| 20260502033057 | 56 | 0 | 0.0 | 2.0 | 0.00 | 0.00 | 0.00 | 56 | 1017.1 |
| 20260502031547 | 57 | 0 | 0.0 | 2.0 | 0.00 | 0.00 | 0.00 | 57 | 1017.1 |
| 20260502030052 | 57 | 0 | 0.0 | 1.0 | 0.00 | 0.00 | 0.00 | 56 | 1017.5 |
| 20260502024603 | 57 | 0 | 0.0 | 3.0 | 0.00 | 0.00 | 0.00 | 58 | 1017.7 |
| 20260502023102 | 57 | 0 | 0.0 | 2.0 | 0.00 | 0.00 | 0.00 | 57 | 1017.9 |
| 20260502021545 | 57 | 0 | 0.0 | 0.0 | 0.00 | 0.00 | 0.00 | 55 | 1018.2 |
| 20260502020041 | 57 | 0 | 0.0 | 4.0 | 0.00 | 0.00 | 0.00 | 54 | 1017.9 |
| 20260502014542 | 58 | 0 | 0.0 | 0.0 | 0.00 | 0.00 | 0.00 | 54 | 1017.8 |
| 20260502013047 | 58 | 0 | 0.0 | 0.0 | 0.00 | 0.00 | 0.00 | 51 | 1017.8 |
| 20260502011541 | 59 | 0 | 0.0 | 1.0 | 0.00 | 0.00 | 0.00 | 49 | 1017.1 |
| 20260502010048 | 60 | 0 | 0.0 | 3.0 | 0.00 | 0.00 | 0.00 | 47 | 1016.7 |